Regional Weather Roundup
Issued by NWS

Home | Current Version | Previous Version | Text Only | Print | Product List | Glossary On
Versions: 1 2 3 4 5 6 7 8 9 10 11 12 13 14 15 16 17 18 19 20 21 22 23 24 25 26 27 28 29 30 31 32 33 34 35 36 37 38 39 40 41 42 43 44 45 46 47 48 49 50
000
ASUS43 KDMX 011307
RWRIA

WEATHER ROUNDUP FOR IOWA
NATIONAL WEATHER SERVICE DES MOINES IA
800 AM CDT WED OCT 01 2014

NOTE: "FAIR" INDICATES FEW OR NO CLOUDS BELOW 12,000 FEET WITH NO
SIGNIFICANT WEATHER AND/OR OBSTRUCTIONS TO VISIBILITY.

* - THESE STATIONS ARE NOT NWS STATIONS...THUS NOT UNDER NWS
QUALITY CONTROL.  THEY ALSO DO NOT REPORT WEATHER SUCH
AS PRECIPITATION OR FOG.

IAZ001>003-012>014-020>022-031>034-043>046-011400-
   NORTHWEST IOWA

CITY           SKY/WX    TMP DP  RH WIND       PRES   REMARKS
CARROLL *      DRIZZLE   63  63 100 S10G16    29.72F
CHEROKEE *     DRIZZLE   61  61 100 CALM      29.75R
DENISON *      MOCLDY    61  61 100 SW7       29.73R
LE MARS *      PTCLDY    55  55 100 CALM      29.75S FOG
ORANGE CITY *  PTCLDY    57  55  94 CALM      29.75S FOG
SHELDON *      CLOUDY    57  57 100 NE5       29.74S FOG
SIOUX CITY     PTCLDY    57  56  96 E3        29.74R FOG
SPENCER        CLOUDY    59  57  93 S9        29.76S
STORM LAKE *   FOG       57  57 100 E10       29.76R VSB 3/4
$$

IAZ055>058-069>071-079>083-090>094-011400-
   SOUTHWEST IOWA

CITY           SKY/WX    TMP DP  RH WIND       PRES   REMARKS
ATLANTIC *     DRIZZLE   63  61  94 CALM      29.76R
AUDUBON *      LGT RAIN  63  57  82 S8        29.75F
CLARINDA *     CLOUDY    64  64 100 VRB5      29.77R
COUNCIL BLFS * LGT RAIN  61  61 100 SE8       29.73S
CRESTON *      CLOUDY    63  63 100 SE12      29.78R
HARLAN  *      CLOUDY    61  61 100 S10       29.79R FOG
LAMONI         LGT RAIN  63  61  93 SE12      29.79R
RED OAK *      CLOUDY    63  63 100 NE5       29.76R
SHENANDOAH *   CLOUDY    64  64 100 CALM      29.75R
$$

IAZ047>049-059>061-072>074-084-011400-
   CENTRAL IOWA

CITY           SKY/WX    TMP DP  RH WIND       PRES   REMARKS
AMES           LGT RAIN  55  55 100 SE13G24   29.79S FOG
ANKENY *       LGT RAIN  57  55  94 SE13G18   29.78F
CHARITON *     LGT RAIN  59  59 100 SE18G24   29.78F
DES MOINES     LGT RAIN  60  57  89 SE9G20    29.79R
GRINNELL*      LGT RAIN  54  52  94 SE9G16    29.87R
KNOXVILLE *    RAIN      57  55  94 SE16G22   29.81F
MARSHALLTOWN   LGT RAIN  53  51  93 SE13      29.84F
PELLA *        RAIN      55  54  94 SE12      29.86S
PERRY *        HVY RAIN  61  59  94 SE12G17   29.76R
$$

IAZ004>006-015-016-023>025-035-036-011400-
   NORTH CENTRAL IOWA

CITY           SKY/WX    TMP DP  RH WIND       PRES   REMARKS
ALGONA *       CLOUDY    54  54 100 SE10G17   29.78S FOG
CLARION *      CLOUDY    54  54 100 SE15G29   29.77R
ESTHERVILLE    CLOUDY    55  54  96 SE10      29.76F FOG
FORT DODGE *   CLOUDY    57  54  88 SE12G17   29.78R
MASON CITY     LGT RAIN  51  50  96 SE16G22   29.83F FOG
FOREST CITY *  CLOUDY    52  52 100 E9G16     29.81S FOG
IOWA FALLS *   RAIN      52  50  93 E16       29.81F
$$

IAZ007>011-017>019-026>030-037>042-050>054-066-011400-
   NORTHEAST IOWA

CITY           SKY/WX    TMP DP  RH WIND       PRES   REMARKS
CHARLES CITY * LGT RAIN  50  48  93 SE10G20   29.87S
CLINTON *      MOSUNNY   52  46  82 SE9       29.98R
DECORAH *      CLOUDY    50  48  93 SE10      29.90S
MONTICELLO *   CLOUDY    52  48  87 SE12      29.92S
OELWEIN *      MOCLDY    52  48  87 SE12      29.90F
WATERLOO       LGT RAIN  51  48  89 SE9       29.88R
$$

IAZ064-065-067-068-078-011400-
   EAST CENTRAL IOWA

CITY           SKY/WX    TMP DP  RH WIND       PRES   REMARKS
IOWA CITY      CLOUDY    53  49  86 SE8       29.92R
MT. PLEASANT * MOCLDY    55  50  82 SE7       29.90F
MUSCATINE *    SUNNY     55  48  76 VRB6      29.92S
$$

IAZ062-063-075>077-085>089-095>099-011400-
   SOUTHEAST IOWA

CITY           SKY/WX    TMP DP  RH WIND       PRES   REMARKS
BURLINGTON     MOSUNNY   54  50  86 SE7       29.91R
FAIRFIELD *    CLOUDY    55  50  82 SE10      29.89S
FORT MADISON * SUNNY     57  52  82 SE8       29.91S HAZE
KEOKUK *       SUNNY     55  52  88 E10       29.89S
OSKALOOSA *    CLOUDY    54  52  94 SE10      29.90R
CENTERVILLE *  LGT RAIN  59  59 100 E8        29.87F
OTTUMWA        LGT RAIN  55  52  89 S5        29.89R
WASHINGTON *   CLEAR     54  50  87 SE13      29.90S
$$

ABBREVIATIONS USED IN REMARKS
   TC - TEMPERATURES IN CELSIUS
  WCI - WIND CHILL INDEX
   HX - HEAT INDEX
  VSB - VISIBILITY
$$



USA.gov is the U.S. government's official web portal to all federal, state and local government web resources and services.